Location: Bukit Lungun
(2.6833°N, 113.9667°E)
Time: 13:12:24
(UTC+00:00)

Ariane H10-3 - Pass Details

Date: 02 March 2021
Orbit: 296 x 31331 km, 7.1° (Epoch: 20 April)

Event Time Altitude Azimuth Distance (km) Brightness Sun altitude
Exits shadow 20:32:02 68° 169° (S) 1,067 3.6 -31.1°
Drops below altitude 10° 20:48:58 10° 101° (E) 8,115 9.2 -26.9°
Sets 21:08:55 0° 99° (E) 14,629 11.1 -22.0°
